Pottstown, PA

10:30 AM EDT on October 19, 2019 (GMT -0400)
Pottstown Limerick

Weather History for KPTW - August, 2019

Change the Weather History Date:

Saturday, August 24, 2019

  Actual Average (KRDG) Record (KRDG)
Temperature  
Mean Temperature 65 °F -  
Max Temperature 75 °F 80 °F 95 °F (1943)
Min Temperature 55 °F 61 °F 45 °F (1971)
Growing Degree Days 15 (Base 50)    
Moisture  
Dew Point 53 °F    
Average Humidity 68    
Maximum Humidity 96    
Minimum Humidity 40    
Precipitation  
Precipitation 0.00 in - - ()
Sea Level Pressure  
Sea Level Pressure 30.18 in    
Wind  
Wind Speed 4 mph (North)    
Max Wind Speed 10 mph    
Max Gust Speed -    
Visibility 10 miles    
Events      
Averages and records for this station are not official NWS values.
T = Trace of Precipitation, MM = Missing Value Source: NWS Daily Summary

Daily Weather History Graph

Daily Weather History Graph

Search for Another Location

Airport or City:

Astronomy

Aug. 24, 2019 Rise Set
Actual Time 6:21 AM EDT 7:46 PM EDT
Civil Twilight 5:53 AM EDT 8:15 PM EDT
Nautical Twilight 5:19 AM EDT 8:49 PM EDT
Astronomical Twilight 4:43 AM EDT 9:25 PM EDT
Moon 12:13 AM EDT (8/24) 3:00 PM EDT (8/24)
Length of Visible Light 14h 21m
Length of Day
13h 24m
Last Quarter, 39% of the Moon is Illuminated
Aug 24
Last Quarter
Aug 30
New
Sep 5
First Quarter
Sep 14
Full
Sep 21
Last Quarter

Hourly Weather History & Observations

Time (EDT) Temp. Dew Point Humidity Pressure Visibility Wind Dir Wind Speed Gust Speed Precip Events Conditions
12:54 AM 57.9 °F 55.9 °F 93% 30.12 in 10.0 mi Calm Calm - N/A   Clear
1:54 AM 60.1 °F 54.0 °F 80% 30.11 in 10.0 mi North 5.8 mph - N/A   Clear
2:54 AM 60.1 °F 53.1 °F 78% 30.11 in 10.0 mi North 8.1 mph - N/A   Clear
3:54 AM 59.0 °F 52.0 °F 78% 30.12 in 10.0 mi North 6.9 mph - N/A   Clear
4:54 AM 57.0 °F 53.1 °F 87% 30.13 in 10.0 mi Calm Calm - N/A   Clear
5:54 AM 55.9 °F 53.1 °F 90% 30.15 in 10.0 mi WNW 3.5 mph - N/A   Clear
6:54 AM 55.0 °F 54.0 °F 96% 30.18 in 9.0 mi Calm Calm - N/A   Mostly Cloudy
7:54 AM 60.1 °F 55.0 °F 83% 30.20 in 10.0 mi WNW 3.5 mph - N/A   Partly Cloudy
8:54 AM 64.9 °F 54.0 °F 68% 30.21 in 10.0 mi Variable 6.9 mph - N/A   Partly Cloudy
9:54 AM 66.9 °F 54.0 °F 63% 30.21 in 10.0 mi NE 6.9 mph - N/A   Mostly Cloudy
10:54 AM 70.0 °F 52.0 °F 53% 30.21 in 10.0 mi NE 8.1 mph - N/A   Overcast
11:54 AM 72.0 °F 54.0 °F 53% 30.20 in 10.0 mi Variable 3.5 mph - N/A   Clear
12:54 PM 73.0 °F 51.1 °F 46% 30.19 in 10.0 mi ENE 4.6 mph - N/A   Partly Cloudy
1:54 PM 72.0 °F 51.1 °F 48% 30.19 in 10.0 mi North 6.9 mph - N/A   Mostly Cloudy
2:54 PM 72.0 °F 51.1 °F 48% 30.19 in 10.0 mi North 5.8 mph - N/A   Overcast
3:54 PM 73.9 °F 51.1 °F 45% 30.17 in 10.0 mi NW 10.4 mph - N/A   Clear
4:54 PM 75.0 °F 48.9 °F 40% 30.18 in 10.0 mi North 3.5 mph - N/A   Clear
5:54 PM 70.0 °F 50.0 °F 49% 30.19 in 10.0 mi NNE 3.5 mph - N/A   Scattered Clouds
6:54 PM 72.0 °F 52.0 °F 49% 30.19 in 10.0 mi North 3.5 mph - N/A   Scattered Clouds
7:54 PM 64.9 °F 52.0 °F 63% 30.20 in 10.0 mi Calm Calm - N/A   Partly Cloudy
8:54 PM 62.1 °F 54.0 °F 75% 30.22 in 10.0 mi Calm Calm - N/A   Clear
9:54 PM 61.0 °F 53.1 °F 75% 30.23 in 10.0 mi NE 4.6 mph - N/A   Clear
10:54 PM 59.0 °F 54.0 °F 83% 30.25 in 10.0 mi Calm Calm - N/A   Partly Cloudy
11:54 PM 57.0 °F 55.0 °F 93% 30.25 in 10.0 mi Calm Calm - N/A   Scattered Clouds